Regional Weather Roundup
Issued by NWS

Home | Current Version | Previous Version | Text Only | Print | Product List | Glossary Off
Versions: 1 2 3 4 5 6 7 8 9 10 11 12 13 14 15 16 17 18 19 20 21 22 23 24 25 26 27 28 29 30 31 32 33 34 35 36 37 38 39 40 41 42 43 44 45 46 47 48 49 50

000
ASUS43 KMKX 042321
RWRWI

WISCONSIN REGIONAL WEATHER ROUNDUP
NATIONAL WEATHER SERVICE MILWAUKEE/SULLIVAN WI
600 PM CDT MON MAY 04 2015

NOTE: "FAIR" INDICATES FEW OR NO CLOUDS BELOW 12,000 FEET WITH NO
SIGNIFICANT WEATHER AND/OR OBSTRUCTIONS TO VISIBILITY.

WIZ001-002-006>008-014>016-023>028-050000-
NORTHWEST WISCONSIN

CITY           SKY/WX    TMP DP  RH WIND       PRES   REMARKS
SUPERIOR ARPT  PTSUNNY   66  20  17 CALM      30.18R
ASHLAND        MOSUNNY   65  28  24 E7        30.19F
HAYWARD        MOSUNNY   67  16  14 N7        30.18S
SIREN          MOSUNNY   68  20  16 NW7       30.18R
CUMBERLAND     MOSUNNY   64  25  22 N3        30.17R
RICE LAKE      MOSUNNY   69  22  17 N10       30.18S
CHETEK         MOSUNNY   67  29  24 N3        30.17S
LADYSMITH      MOSUNNY   68  26  20 NW5       30.18S
EAU CLAIRE     CLOUDY    69  26  20 VRB3      30.16R
MENOMONIE      PTSUNNY   68  24  19 NE5       30.17S
NEW RICHMOND   MOSUNNY   68  23  18 NE8       30.17S
OSCEOLA        MOSUNNY   69  25  19 NW6       30.19S
$$

WIZ003>005-009-010-017-018-050000-
NORTH CENTRAL WISCONSIN

CITY           SKY/WX    TMP DP  RH WIND       PRES   REMARKS
MANITOWISH WTR SUNNY     61  22  23 N5        30.20R
ARBOR VITAE    SUNNY     63  19  18 N9        30.19R
WOODRUFF       SUNNY     63  19  18 N9        30.19R
RHINELANDER    MOSUNNY   65  25  22 VRB5      30.19R
EAGLE RIVER    SUNNY     64  19  17 N7        30.18R
LAND O LAKES   SUNNY     63  21  20 NW7       30.20R
PHILLIPS       MOSUNNY   65  25  22 NE9       30.18R
TOMAHAWK       MOSUNNY   66  25  21 CALM      30.18R
MEDFORD        PTSUNNY   65  31  28 NW5       30.17R
MERRILL        MOSUNNY   67  29  24 NW3       30.17S
$$

WIZ029-030-035-036-043>047-050000-
CENTRAL WISCONSIN

CITY           SKY/WX    TMP DP  RH WIND       PRES   REMARKS
WAUSAU         PTSUNNY   69  28  21 CALM      30.15R
MOSINEE        SUNNY     66  32  28 N6        30.18R
MARSHFIELD     CLOUDY    68  34  28 SW3       30.17R
STEVENS POINT  CLOUDY    67  31  26 CALM      30.16R
WAUPACA        CLOUDY    74  31  19 CALM      30.14R HAZE
WAUTOMA        PTSUNNY   73  35  24 NW7       30.14S
WISC RAPIDS    CLOUDY    70  30  22 N7        30.16S
CAMP DOUGLAS   PTSUNNY   72  34  25 NW6       30.13S
$$

WIZ011>013-019>022-031-037>040-048>050-050000-
NORTHEAST WISCONSIN

CITY           SKY/WX    TMP DP  RH WIND       PRES   REMARKS
ANTIGO         PTSUNNY   64  33  30 NE5       30.17S
SHAWANO        PTSUNNY   73  39  29 SE7       30.15R
OCONTO         MOSUNNY   61  41  47 E9G17     30.17R
STURGEON BAY   MOSUNNY   57  37  47 E9        30.22R
GREEN BAY      PTSUNNY   64  40  41 E16       30.17R
MANITOWOC      PTSUNNY   59  40  49 E7        30.19R
APPLETON       MOSUNNY   70  37  30 SE12      30.15R
CLINTONVILLE   PTSUNNY   70  32  24 NE3       30.14R
OSHKOSH        PTSUNNY   68  43  40 SE10      30.14S
$$

WIZ032>034-041-042-053>061-050000-
SOUTHWEST WISCONSIN

CITY           SKY/WX    TMP DP  RH WIND       PRES   REMARKS
LA CROSSE      PTSUNNY   72  39  30 N8        30.13R
SPARTA         PTSUNNY   71  32  24 NW6       30.15R
VIROQUA        PTSUNNY   69  40  35 NE7       30.14S
BOSCOBEL       CLOUDY    75  46  35 NE5       30.11S
PRAIRIE DU CHI CLOUDY    73  46  38 CALM      30.10S
PLATTEVILLE    CLOUDY    72  55  56 NE7       30.11S
$$

WIZ056-057-062-063-064-067-068-050000-
SOUTH CENTRAL WISCONSIN

CITY           SKY/WX    TMP DP  RH WIND       PRES   REMARKS
REEDSBURG      MOSUNNY   71  44  36 N5        30.12S
BARABOO/DELLS  NOT AVBL
LONE ROCK      CLOUDY    72  52  49 E3        30.11S
MINERAL POINT  CLOUDY    72  52  49 E7        30.12S
MADISON        CLOUDY    71  53  52 E8        30.12S
MIDDLETON      PTSUNNY   73  51  45 E7        30.13S
WATERTOWN      PTSUNNY   67  45  45 SE9       30.14R
MONROE         PTSUNNY   70  55  60 NE6       30.11F
JANESVILLE     PTSUNNY   73  55  53 E8        30.11S
$$

WIZ051-052-058>065-066-070>072-050000-
SOUTHEAST WISCONSIN

CITY           SKY/WX    TMP DP  RH WIND       PRES   REMARKS
MILWAUKEE      PTSUNNY   56  39  53 NE9       30.16F
WAUKESHA       MOSUNNY   63  34  34 E12       30.17R
MILWAUKEE/TIMM SUNNY     61  36  39 E8        30.18S
RACINE         MOSUNNY   55  39  54 NE10      30.18S
BURLINGTON     MOSUNNY   63  36  36 E10G16    30.16R
KENOSHA        PTSUNNY   61  39  44 E12       30.16S
FOND DU LAC    PTSUNNY   68  41  37 SE8       30.15R
SHEBOYGAN      PTSUNNY   58  39  49 E9        30.18R
WEST BEND      MOSUNNY   63  36  36 E6        30.17S
JUNEAU         MOSUNNY   68  45  43 E12       30.15S
$$

LSZ147-162-050000-
LAKE SUPERIOR

STATION/POSITION TIME  TEMP    WIND        PRES    WAVE
                       AIR SEA DIR/SP/G            HT/PER
                 (UTC) (F)     (DEG/KT/KT) (MB)    (FT/S)
W MID LAKE BUOY  2250   43 36  200/ 12/ 12 1022.9F   1
DEVILS ISLAND    2300   61     170/  5/  8 1022.5R
PORT WING        2240   60     300/  4/  5 1022.0F
SAXON HARBOR     2240   59        CALM     1022.4F
$$

LMZ867-665-643>646-050000-
LAKE MICHIGAN

STATION/POSITION TIME  TEMP    WIND        PRES    WAVE
                       AIR SEA DIR/SP/G            HT/PER
                 (UTC) (F)     (DEG/KT/KT) (MB)    (FT/S)
CHAMBERS ISLAND  2200   58      70/  9/ 12 1021.7S
NORTHPORT PIER   2200   50     150/  6/  7 1022.0R
SISTER BAY       2132   64     110/ 10/ 12   N/A
KEWAUNEE LAKESHO 2300   47      90/  3/ 10 1021.7R
SHEBOYGAN LAKESH 2300   50      40/ 11/ 15 1022.3R
PORT WASHINGTON  2200   55      40/  6/  7 1022.4
ATWATER BUOY     2300   49     320/  2/  4 1023.0S
MILWAUKEE LAKESH 2300   51      30/  7/  7   N/A
KENOSHA   LAKESH 2300   49      10/ 10/ 11 1021.3R
$$

TC  - TEMPERATURE IN CELSIUS
VSB - VISIBILITY IN STATUTE MILES
WCI - WIND CHILL INDEX
HX  - HEAT INDEX



USA.gov is the U.S. government's official web portal to all federal, state and local government web resources and services.